TimeEDT,TemperatureF,Dew PointF,Humidity,Sea Level PressureIn,VisibilityMPH,Wind Direction,Wind SpeedMPH,Gust SpeedMPH,PrecipitationIn,Events,Conditions,WindDirDegrees,DateUTC
12:54 AM,62.1,61.0,96,30.14,-9999.0,Calm,Calm,-,N/A,,Unknown,0,2013-08-19 04:54:00
1:54 AM,62.1,61.0,96,30.13,-9999.0,Calm,Calm,-,N/A,,Unknown,0,2013-08-19 05:54:00
2:54 AM,61.0,60.1,97,30.14,-9999.0,Calm,Calm,-,N/A,,Unknown,0,2013-08-19 06:54:00
3:54 AM,61.0,60.1,97,30.14,-9999.0,Calm,Calm,-,N/A,,Unknown,0,2013-08-19 07:54:00
4:54 AM,60.1,59.0,96,30.13,-9999.0,Calm,Calm,-,N/A,,Unknown,0,2013-08-19 08:54:00
5:54 AM,60.1,57.9,93,30.12,-9999.0,Calm,Calm,-,N/A,,Unknown,0,2013-08-19 09:54:00
6:54 AM,60.1,59.0,96,30.14,-9999.0,Calm,Calm,-,N/A,,Unknown,0,2013-08-19 10:54:00
7:54 AM,62.1,60.1,93,30.14,-9999.0,Calm,Calm,-,N/A,,Unknown,0,2013-08-19 11:54:00
8:54 AM,66.0,61.0,84,30.12,-9999.0,Calm,Calm,-,N/A,,Unknown,0,2013-08-19 12:54:00
9:54 AM,70.0,62.1,76,30.12,-9999.0,Calm,Calm,-,N/A,,Unknown,0,2013-08-19 13:54:00
10:54 AM,75.0,62.1,64,30.10,-9999.0,Calm,Calm,-,N/A,,Unknown,0,2013-08-19 14:54:00
11:54 AM,75.9,59.0,56,30.09,-9999.0,Calm,Calm,-,N/A,,Unknown,0,2013-08-19 15:54:00
12:54 PM,75.9,60.1,58,30.08,-9999.0,West,3.5,-,N/A,,Unknown,260,2013-08-19 16:54:00
1:54 PM,75.0,61.0,62,30.07,-9999.0,SW,4.6,-,N/A,,Unknown,220,2013-08-19 17:54:00
2:54 PM,75.9,64.0,67,30.06,-9999.0,Calm,Calm,-,N/A,,Unknown,0,2013-08-19 18:54:00
3:54 PM,73.9,61.0,64,30.06,-9999.0,Variable,4.6,-,N/A,,Unknown,0,2013-08-19 19:54:00
4:54 PM,73.0,60.1,64,30.06,-9999.0,Variable,3.5,-,N/A,,Unknown,0,2013-08-19 20:54:00
5:54 PM,73.9,62.1,66,30.06,-9999.0,Variable,3.5,-,N/A,,Unknown,0,2013-08-19 21:54:00
6:54 PM,72.0,63.0,73,30.06,-9999.0,SW,3.5,-,N/A,,Unknown,220,2013-08-19 22:54:00
7:54 PM,69.1,64.0,84,30.06,-9999.0,Calm,Calm,-,N/A,,Unknown,0,2013-08-19 23:54:00
8:54 PM,66.0,64.0,93,30.06,-9999.0,Calm,Calm,-,N/A,,Unknown,0,2013-08-20 00:54:00
9:54 PM,64.9,63.0,93,30.07,-9999.0,Calm,Calm,-,N/A,,Unknown,0,2013-08-20 01:54:00
10:54 PM,64.0,62.1,93,30.07,-9999.0,Calm,Calm,-,N/A,,Unknown,0,2013-08-20 02:54:00
11:54 PM,63.0,62.1,97,30.08,-9999.0,Calm,Calm,-,N/A,,Unknown,0,2013-08-20 03:54:00